Wind_Speed
36 36 36 36 35 35 35 34 35 35 35 36 37 38 39 41 42 43 43 43 42 41 40 38 38 39 41 43 45 46 46 47 45 43 42 43 42 42 42 41 41 42 42 42 41 38 37 38 40 40 39 41 40 38 38 37 37 37 36 36 35 35 35 34 37 40 36 30 30 31 32 34 36 37 35 33 33 33 32 31 29 29 28 27 26
37 37 36 35 34 35 36 36 36 37 37 38 39 40 41 43 43 44 43 43 43 42 41 40 38 37 38 39 42 44 47 48 49 47 46 46 45 44 44 43 44 44 43 42 39 36 36 39 40 40 39 41 40 38 38 38 37 37 36 35 36 35 35 35 36 38 36 32 31 32 32 34 37 38 35 34 33 33 33 31 29 28 28 27 26
37 37 34 33 35 36 37 37 38 38 39 40 41 42 43 43 44 44 44 44 43 43 42 42 40 39 37 37 37 38 40 42 43 44 45 46 47 47 46 45 45 44 42 40 38 35 37 39 40 40 40 40 40 38 39 38 37 37 36 35 35 35 34 34 35 36 36 33 30 31 32 33 35 36 34 33 33 33 33 31 29 28 28 27 27
38 36 34 35 37 38 39 39 39 40 40 41 42 42 43 43 44 44 45 45 44 43 42 41 41 40 38 37 35 34 33 33 33 34 36 37 38 40 41 42 43 43 42 40 37 35 37 40 40 40 39 40 39 38 38 38 37 36 35 35 35 35 34 34 35 36 35 34 31 30 30 32 33 33 32 32 32 32 32 31 29 28 27 26 26
38 36 36 38 39 40 40 40 40 41 41 42 43 43 44 44 44 44 45 45 45 44 43 41 40 40 39 37 35 32 29 28 28 28 28 29 30 31 33 36 39 40 40 39 37 35 37 39 40 40 39 39 39 38 38 38 37 35 35 34 34 34 34 34 34 35 35 34 32 29 29 30 31 32 31 31 31 31 30 30 28 28 27 26 26
37 37 38 39 40 40 41 40 41 42 42 43 44 44 45 45 45 45 45 45 45 44 43 42 40 39 38 36 34 32 29 28 29 29 30 32 33 32 32 34 35 37 38 37 36 36 36 38 39 39 39 39 38 38 38 37 36 35 34 34 33 33 33 33 33 33 34 34 32 30 29 29 30 31 31 30 30 30 29 28 28 27 26 26 25
36 36 38 39 40 41 41 41 42 42 43 44 44 45 45 45 45 45 44 44 44 44 43 42 40 39 37 35 33 32 31 31 30 30 32 32 32 31 32 33 35 36 38 38 36 35 36 37 38 38 38 38 38 38 37 37 35 34 33 33 32 32 32 32 32 32 32 32 31 30 29 28 29 30 29 28 28 28 27 27 28 27 24 23 23
35 36 38 39 40 41 41 42 42 43 44 44 45 45 45 45 45 45 44 44 43 42 42 41 40 38 36 35 33 32 32 32 30 30 29 27 26 27 29 30 32 33 34 34 34 34 35 36 37 37 36 36 36 37 36 35 34 33 32 32 31 31 31 32 31 31 31 31 30 29 28 28 29 28 28 28 27 26 23 23 27 27 23 20 19
35 37 38 39 40 41 41 42 42 43 44 44 45 45 45 45 45 45 44 43 42 41 40 39 38 37 35 34 33 32 32 33 32 30 28 27 28 30 32 33 34 34 33 32 32 32 34 35 35 35 35 34 34 35 34 33 32 32 31 31 31 31 31 31 31 31 31 30 30 29 28 30 30 28 28 28 26 23 21 21 25 25 23 20 17
35 37 39 39 40 41 41 42 42 43 44 44 45 45 45 45 45 44 43 42 41 40 39 37 36 35 34 34 33 32 32 32 32 30 29 30 32 35 36 36 36 36 35 34 33 31 31 33 34 33 32 33 33 32 32 31 31 30 30 30 29 30 31 32 32 31 31 30 29 29 29 31 31 28 28 27 24 21 20 20 22 22 21 20 17
36 37 38 39 40 41 42 42 43 43 43 44 44 45 45 45 44 44 43 42 41 39 37 36 34 33 33 33 33 33 32 31 30 30 30 32 34 34 35 35 35 35 36 36 35 33 31 31 32 31 31 31 32 31 31 30 28 27 27 27 27 27 29 31 32 31 31 31 31 31 31 32 31 29 28 26 22 20 18 18 20 20 19 18 17
36 37 38 39 40 41 42 42 43 43 43 44 44 44 45 44 44 43 42 41 40 39 37 35 33 32 32 32 33 33 33 33 31 30 32 33 33 33 34 35 35 34 35 35 35 34 32 30 30 30 30 30 30 30 29 29 27 26 26 26 25 25 26 27 28 29 29 29 30 31 33 33 33 31 28 23 20 19 17 17 19 19 18 17 17
36 37 38 38 39 41 41 42 43 43 43 44 44 44 44 44 43 43 42 41 40 39 37 35 33 31 31 32 34 34 34 34 33 32 32 32 32 32 33 34 33 33 34 34 33 32 32 31 30 29 28 28 29 29 28 27 26 26 26 26 27 27 26 26 27 27 28 29 29 29 28 30 32 31 26 21 18 17 17 18 18 17 16 16 17
36 37 38 39 40 41 42 43 43 43 43 44 44 44 44 44 43 41 41 40 39 39 38 36 34 33 33 34 35 35 35 34 34 33 32 32 31 31 31 31 31 31 30 29 29 29 29 30 30 29 27 26 26 26 25 24 23 23 24 26 29 30 30 29 29 28 26 29 32 30 25 23 25 25 21 18 17 17 17 18 17 16 16 16 17
37 38 39 39 40 41 42 43 44 44 44 44 44 45 44 44 42 41 39 38 38 38 37 36 36 35 34 34 35 36 36 35 34 32 31 31 30 30 30 30 29 27 25 23 23 24 26 27 29 28 27 25 24 23 23 23 23 22 22 23 25 29 31 33 35 33 27 23 27 30 27 21 19 18 18 17 17 17 16 16 15 15 16 15 15
37 38 39 39 40 41 42 43 44 44 44 45 45 45 44 44 42 40 39 38 37 37 36 35 35 35 35 35 36 37 35 32 31 31 31 30 29 29 29 27 26 24 21 19 19 21 22 24 26 27 27 26 24 23 23 23 23 23 23 22 22 24 28 30 33 36 32 24 22 24 25 22 18 16 15 16 16 16 16 16 14 13 11 9 8
38 39 39 39 40 41 41 43 44 44 44 44 44 44 43 43 41 39 38 38 38 37 36 35 35 35 36 36 35 35 33 29 29 30 31 29 28 27 27 26 25 23 19 16 16 18 20 22 24 25 25 25 23 22 22 22 23 24 23 23 22 23 25 26 28 34 36 30 23 21 21 21 19 16 15 16 15 16 17 14 12 10 8 4 3
38 39 39 39 40 40 41 42 42 43 43 43 43 43 42 41 40 37 37 38 38 37 36 36 36 35 35 33 30 31 32 30 28 28 28 27 26 26 26 25 24 22 19 16 15 16 18 19 21 22 22 22 22 22 22 22 24 25 24 24 24 24 24 23 23 30 36 35 29 25 22 19 17 16 15 16 16 18 18 12 9 11 8 4 5
38 39 39 39 39 40 40 41 41 41 42 41 41 41 40 40 38 36 36 36 37 36 35 36 37 34 31 29 29 31 34 33 28 26 26 26 26 26 25 25 24 22 20 18 16 16 17 17 18 21 22 22 22 23 22 22 24 26 26 26 27 27 25 22 21 24 33 37 36 32 27 22 19 16 17 19 19 20 18 12 10 12 10 8 9
38 38 38 38 39 39 39 40 40 40 40 41 40 39 39 38 37 36 35 35 35 35 34 35 36 33 30 30 32 34 36 36 31 26 25 25 25 24 24 24 24 23 21 19 18 18 17 16 18 20 22 23 23 23 23 23 24 26 27 28 28 27 25 23 21 21 25 33 38 37 33 27 21 17 18 21 22 22 22 20 18 17 16 15 15
38 38 38 38 39 39 39 39 39 39 39 40 40 39 38 37 35 35 35 35 35 34 34 35 35 34 32 32 34 35 36 37 34 27 23 23 23 23 23 23 23 23 22 21 20 20 20 20 20 21 21 21 22 23 23 22 22 24 26 27 27 25 23 23 21 19 20 24 30 35 37 33 25 20 21 23 23 23 24 24 22 20 19 18 17
38 38 39 39 39 39 39 38 38 39 39 39 40 39 38 36 34 34 35 35 34 34 34 34 36 36 35 34 35 36 35 35 35 30 24 22 22 22 22 22 22 22 22 23 23 23 23 23 23 24 23 22 22 22 23 23 22 23 25 25 23 21 21 20 18 16 17 18 20 26 33 35 31 26 25 26 26 26 25 24 22 21 20 19 19
39 39 38 39 39 39 39 38 38 38 39 39 39 39 38 36 34 34 34 34 34 35 34 35 37 39 39 37 37 37 36 36 37 32 25 21 21 20 20 20 21 20 21 23 24 24 23 23 23 23 23 22 22 22 23 23 23 23 23 23 23 21 21 21 19 16 17 17 16 20 27 32 33 30 29 30 30 30 28 26 24 23 22 21 20
39 38 38 38 39 39 39 38 38 38 38 39 39 38 38 37 35 34 34 33 35 36 35 36 38 41 42 41 40 40 39 37 37 34 26 20 19 17 16 16 18 19 21 23 23 23 23 23 23 21 20 20 21 21 22 22 22 22 22 22 23 22 22 24 22 18 17 17 17 18 23 28 30 30 29 29 30 29 29 28 27 26 24 22 21
39 38 38 38 39 39 39 38 37 37 37 38 38 38 38 37 35 35 34 33 35 36 36 37 40 42 43 42 41 41 40 38 38 36 27 19 16 14 12 11 12 14 17 21 23 23 22 21 21 20 19 19 19 19 20 21 21 21 21 20 22 23 23 25 25 21 19 18 17 18 21 24 25 24 22 21 21 22 22 23 24 24 23 21 19
39 38 38 38 38 38 38 38 38 37 37 37 37 36 37 36 36 35 34 34 35 35 35 37 40 42 41 40 39 39 39 37 38 37 29 20 17 16 14 14 13 14 16 18 21 22 20 18 18 18 18 18 18 18 19 20 20 20 20 19 21 22 22 22 25 25 21 19 18 18 19 20 20 18 16 16 16 16 16 17 18 19 19 19 19
38 38 38 38 38 37 38 38 38 38 38 38 37 36 36 36 35 34 34 34 34 33 34 37 40 41 39 37 37 38 37 36 38 39 34 24 21 22 22 20 18 18 17 16 17 18 19 19 16 15 16 15 15 16 17 17 16 17 18 19 20 22 22 21 23 25 22 18 16 17 18 18 18 17 17 16 15 14 14 15 16 16 17 18 18
37 38 37 37 37 36 36 37 38 39 39 38 37 37 37 37 36 34 32 32 31 32 33 36 38 36 34 33 33 34 36 36 38 40 36 27 21 23 24 22 19 16 14 14 15 14 15 17 16 14 13 13 13 13 14 15 15 15 17 19 19 21 22 21 20 23 23 19 16 16 17 17 18 18 18 16 15 14 15 15 15 14 14 14 14
37 38 37 36 36 36 36 36 36 38 38 38 37 36 35 35 35 34 31 29 27 29 32 33 33 31 30 29 29 31 34 36 36 35 32 25 23 25 23 19 15 12 11 12 10 7 6 9 10 9 8 9 8 9 11 14 15 15 15 17 18 19 22 23 21 21 21 21 19 18 18 19 20 20 18 18 16 15 15 16 15 14 12 10 8
38 38 37 36 36 36 36 36 36 37 37 37 38 38 35 33 32 32 31 29 26 25 25 25 26 27 27 25 24 26 29 31 30 29 28 26 24 25 24 21 14 9 9 8 3 2 2 1 3 3 3 4 5 7 10 9 9 11 14 16 17 17 19 23 22 19 19 20 20 20 20 21 22 21 19 19 17 15 16 17 16 16 15 11 7
38 38 37 36 35 35 35 35 36 36 36 36 37 39 39 37 34 31 30 30 28 24 21 19 20 22 22 22 22 24 25 26 26 26 26 25 24 24 25 25 18 8 5 4 3 3 0 2 3 4 4 4 5 5 4 4 4 5 10 13 16 17 19 22 23 21 19 18 19 21 22 22 22 22 22 21 18 16 18 19 18 18 17 13 9
36 36 36 35 35 34 34 35 35 35 36 36 36 37 39 40 39 35 32 30 29 25 22 21 20 19 18 17 20 24 25 24 25 26 26 25 25 24 24 24 20 10 4 3 3 1 2 1 1 2 1 2 3 1 6 10 9 8 8 10 11 13 15 17 19 20 20 21 22 23 23 21 20 21 20 19 17 17 20 21 20 19 18 15 12
34 34 34 34 34 34 34 34 34 34 35 35 35 36 36 38 40 40 37 34 31 28 26 24 22 21 18 16 18 22 23 21 22 25 26 25 25 24 22 20 18 13 9 7 7 5 3 3 4 4 4 3 3 4 5 6 6 6 7 8 9 10 11 11 12 13 15 18 21 22 21 20 19 19 19 18 18 19 20 19 18 17 17 16 15
32 33 32 32 33 33 33 34 34 33 33 34 34 34 34 34 35 37 38 38 37 33 31 28 25 23 22 19 19 22 24 22 22 23 24 24 23 23 21 16 12 12 12 11 12 10 8 7 6 5 4 4 4 4 4 4 3 3 2 3 4 5 6 6 7 8 9 12 15 18 19 19 19 19 20 20 21 20 19 18 17 17 17 16 16
31 32 31 31 32 32 32 33 33 32 32 33 32 32 33 33 33 33 34 35 37 36 35 32 28 26 25 23 21 23 26 25 23 22 22 21 20 20 19 16 12 11 11 11 11 10 9 7 6 5 4 4 3 3 3 2 2 1 1 1 1 2 3 4 5 6 7 8 10 13 16 17 18 19 20 20 21 21 22 21 20 20 19 18 18
32 32 31 30 31 31 31 32 32 31 31 31 31 31 31 31 31 32 31 31 32 33 34 33 31 28 25 23 22 24 25 23 22 21 20 19 18 17 16 14 13 12 11 9 8 7 6 4 3 2 1 0 0 1 1 1 1 2 2 3 3 3 4 5 6 7 9 10 12 14 16 18 19 20 20 21 22 23 23 23 23 23 22 21 21
31 31 31 31 31 31 31 31 31 30 30 30 30 30 30 30 30 30 31 31 31 31 32 32 32 30 28 26 25 26 25 22 20 20 19 18 17 16 15 14 13 11 11 9 7 5 4 3 2 1 2 3 4 5 6 6 6 6 6 6 7 7 7 8 8 9 11 12 14 15 17 18 19 20 21 21 22 23 23 24 25 25 24 24 23
30 30 30 30 30 31 31 31 31 30 30 29 29 30 30 30 30 30 30 30 30 30 30 30 31 31 30 28 27 28 26 23 21 21 20 19 19 19 17 15 14 12 12 11 9 8 6 4 3 3 3 4 5 7 8 9 10 10 10 10 11 11 12 12 12 12 13 14 15 16 17 18 19 20 20 21 21 22 23 23 24 25 25 25 25
30 30 29 29 29 30 31 31 31 31 30 29 29 29 29 30 29 29 30 29 29 29 29 29 29 29 27 27 27 28 27 25 24 23 23 23 22 21 19 17 15 13 12 11 11 10 8 7 5 4 3 4 5 6 7 9 10 11 12 12 12 13 14 14 14 14 14 14 14 15 15 16 18 18 18 19 19 20 20 21 22 23 24 25 24
31 30 29 29 29 30 30 30 30 31 30 30 29 29 29 29 29 29 29 29 28 28 28 27 27 27 25 24 25 26 24 22 21 21 22 22 22 21 20 19 17 15 13 12 11 10 10 9 8 6 5 4 3 4 4 5 7 8 9 9 10 11 12 12 11 11 11 11 11 12 12 13 14 15 15 16 16 17 17 18 18 20 21 22 22
31 30 29 29 29 30 30 30 30 30 30 29 29 28 28 28 28 28 28 28 27 27 27 26 26 25 24 22 21 20 19 18 17 18 19 20 20 20 20 19 18 16 14 12 11 10 9 9 8 8 7 5 4 2 1 2 2 3 4 5 5 6 7 7 7 7 8 8 9 10 10 10 11 12 12 13 14 15 15 15 16 17 17 18 19
31 30 30 29 29 30 30 30 29 29 29 29 28 28 27 27 27 27 26 26 26 26 26 26 25 24 23 21 20 18 16 15 15 15 16 18 19 19 18 18 17 16 15 13 12 10 9 8 8 8 7 6 5 4 2 1 1 1 2 3 3 3 4 4 5 5 6 6 7 8 8 8 9 10 10 11 12 13 14 14 15 16 16 17 17
30 30 30 29 29 29 30 30 30 29 29 29 28 27 27 26 26 25 25 25 25 25 25 25 25 24 23 21 20 19 17 16 15 15 15 17 18 19 18 17 16 15 14 13 11 10 9 7 6 6 6 6 6 5 4 3 2 2 2 2 2 3 3 3 3 4 4 5 5 5 6 6 7 7 8 8 9 11 12 13 15 15 16 16 16
29 30 30 29 29 29 29 29 29 29 29 28 28 27 27 26 25 25 25 24 24 25 25 24 25 24 23 22 21 20 19 18 17 16 16 17 18 18 18 17 16 15 13 12 11 9 8 7 6 5 4 4 4 4 4 4 3 2 2 2 2 2 2 3 3 3 4 4 4 4 4 4 5 5 6 6 7 9 9 11 12 14 14 15 16
29 30 30 30 30 30 30 30 30 29 28 28 28 27 26 26 25 25 24 24 24 24 24 24 24 23 23 22 22 21 20 19 18 17 17 17 18 18 17 16 16 15 14 13 12 10 9 7 6 5 4 3 2 2 2 3 3 2 2 2 2 2 2 3 3 3 3 4 4 3 3 3 4 4 4 5 6 7 7 9 10 11 13 14 15
29 29 30 30 30 31 31 31 31 30 28 28 28 27 26 25 25 25 24 23 23 23 23 23 23 22 22 22 21 21 21 19 18 18 18 18 18 17 16 15 15 14 13 13 12 11 10 8 7 6 5 4 2 1 1 1 1 2 1 0 1 2 2 3 3 3 4 4 4 4 4 4 4 4 4 4 4 5 6 7 8 9 11 12 13
29 29 29 29 30 31 31 31 31 31 29 28 27 26 26 25 25 24 24 23 23 22 22 22 22 22 21 21 21 20 20 20 19 18 18 18 17 17 16 15 15 14 13 12 12 12 11 10 8 6 6 5 4 3 2 2 2 2 2 2 2 2 2 2 3 3 4 4 4 5 5 5 4 4 4 4 4 4 4 5 6 7 8 10 11
29 29 29 29 30 31 32 32 31 31 30 28 27 25 25 25 24 24 23 23 23 22 21 21 21 21 21 20 20 20 19 19 19 18 18 17 17 17 16 16 15 14 13 12 12 11 11 11 10 8 7 6 5 5 4 4 3 3 3 3 3 3 3 3 3 3 4 4 5 5 5 5 5 5 5 5 5 4 4 4 4 5 6 8 9
29 29 29 29 29 30 31 31 31 30 29 28 27 25 24 24 24 23 22 22 22 22 21 21 21 21 20 20 19 19 18 18 18 18 18 18 17 17 16 15 15 14 13 12 11 11 11 11 11 10 9 7 7 6 6 5 5 5 4 4 4 4 5 5 4 4 5 5 5 5 5 6 6 6 6 5 5 5 5 4 4 4 5 5 7
30 29 29 29 29 30 30 30 30 29 28 28 27 26 24 23 23 22 22 22 22 21 21 20 20 20 20 20 20 19 18 18 18 18 18 18 17 17 16 15 14 14 13 12 11 11 11 11 11 11 10 9 8 7 7 6 6 6 6 5 5 5 5 6 6 5 5 6 6 6 6 6 6 6 6 6 6 6 5 5 5 5 5 4 5
31 30 30 29 29 29 29 30 29 29 28 27 26 25 24 23 22 21 21 22 21 21 21 20 20 19 19 19 19 19 18 18 18 18 18 17 17 17 16 15 15 14 13 12 11 11 10 10 10 11 11 10 9 8 8 7 7 7 7 7 6 7 7 7 7 6 6 6 7 7 7 7 7 7 7 7 7 7 6 5 5 5 5 5 5
Wind_Direction
334 335 335 335 334 333 334 332 331 328 325 323 321 320 319 318 319 319 318 318 317 315 312 309 303 296 289 284 280 278 278 277 277 277 277 276 276 276 276 277 277 278 280 280 279 279 277 270 264 261 259 257 257 257 260 261 260 258 258 256 255 254 253 250 252 259 263 260 261 265 267 267 267 267 267 270 274 279 282 283 284 285 283 279 275
335 336 335 335 335 335 335 332 330 328 326 324 324 323 323 322 322 321 320 320 319 318 316 314 310 305 298 292 286 282 280 278 278 277 277 275 275 275 275 275 276 277 278 278 277 276 273 268 262 259 257 255 255 257 260 260 258 258 257 256 255 255 253 251 251 256 261 261 263 266 268 266 266 267 267 269 273 277 280 281 283 282 282 282 278
336 336 335 335 335 334 333 331 330 328 327 326 326 326 325 324 324 323 323 322 322 321 319 317 315 312 307 301 296 291 287 285 282 280 278 276 275 274 273 274 275 276 276 276 275 274 270 264 259 257 254 253 254 257 259 258 256 256 256 256 256 255 253 251 251 254 259 261 263 265 267 266 266 267 267 268 270 275 278 280 282 282 282 283 280
336 336 335 334 334 333 332 331 329 328 328 327 327 326 325 325 325 326 325 324 323 322 321 319 317 315 313 309 305 299 295 294 292 290 286 284 281 279 276 273 273 273 273 273 273 271 266 260 256 254 252 253 255 257 257 256 255 255 256 257 256 254 253 252 252 254 258 261 261 263 265 265 266 267 266 267 268 272 277 280 281 283 283 283 281
336 336 335 334 334 333 332 330 330 330 329 328 328 327 328 328 327 327 326 326 324 323 322 321 320 318 317 315 312 307 303 302 303 302 296 288 285 283 280 278 276 274 273 272 270 269 265 259 254 252 252 253 254 256 254 253 253 254 256 256 255 253 252 252 253 255 257 259 260 262 264 265 266 267 266 266 268 271 275 278 281 284 285 283 281
336 335 335 335 334 332 332 332 332 331 330 330 330 330 329 329 328 328 327 326 325 324 323 322 321 319 317 316 314 310 305 298 293 289 283 282 282 280 275 274 275 274 272 271 269 268 264 259 254 252 252 253 253 253 252 252 253 254 256 256 254 253 252 252 255 255 256 258 259 261 264 264 265 266 266 266 269 272 273 275 280 282 285 285 282
335 334 335 335 333 332 333 333 333 332 332 331 331 330 330 329 329 328 328 327 326 325 324 322 320 318 317 316 314 310 306 298 291 286 285 288 291 286 278 273 273 272 272 271 269 266 263 259 255 253 252 253 253 252 251 251 253 255 256 256 255 253 253 253 254 255 256 258 259 260 262 263 263 264 266 266 267 270 271 276 282 282 284 284 281
334 334 335 334 333 333 334 333 333 333 332 331 330 330 330 330 329 329 328 327 326 324 323 320 318 317 316 314 312 310 307 303 299 295 294 296 296 292 287 283 281 279 277 274 270 266 264 260 256 254 255 254 254 253 252 253 254 255 256 255 254 253 253 253 254 254 256 258 259 260 260 261 261 262 264 264 263 265 268 277 284 285 286 283 276
335 336 336 334 334 334 333 333 333 332 332 331 330 330 330 329 329 329 328 326 325 323 321 318 317 316 314 312 311 309 307 304 301 298 298 301 302 298 294 291 287 283 280 276 271 268 265 262 258 256 255 255 254 254 254 254 255 256 256 255 254 253 253 252 252 253 255 257 257 257 257 258 259 259 260 260 260 262 266 275 281 283 285 282 271
336 336 335 334 334 334 334 333 333 332 332 331 330 330 330 329 328 328 327 325 324 321 319 317 316 314 312 311 309 308 306 304 302 298 295 297 298 296 294 291 287 284 281 277 273 269 265 262 259 257 255 255 254 253 254 255 257 258 258 257 255 253 251 251 251 252 253 253 253 253 253 254 256 256 257 259 260 260 265 274 279 279 279 278 269
337 336 335 335 335 335 334 333 332 332 331 330 330 330 329 328 328 327 326 324 323 321 319 317 315 314 312 310 309 308 306 304 304 300 296 294 292 290 289 287 284 283 281 277 273 270 266 262 258 255 254 254 253 253 253 254 252 250 251 254 255 253 251 249 250 252 252 253 252 252 252 253 255 255 256 258 258 257 263 272 273 272 272 271 263
336 336 335 336 336 335 334 332 332 332 331 331 330 329 329 328 328 327 326 324 323 321 319 317 315 314 313 310 309 308 306 306 307 302 297 295 293 291 289 287 284 281 278 276 272 268 265 262 258 255 253 252 252 253 253 254 250 243 241 244 248 251 252 252 254 254 253 253 253 253 253 253 255 255 255 257 255 255 263 266 262 264 268 265 256
336 336 336 337 336 335 334 332 332 332 332 331 330 329 329 328 328 328 326 324 323 321 320 318 316 314 313 311 309 308 308 309 309 305 299 297 295 293 290 289 286 282 278 275 271 266 262 259 257 255 252 250 250 251 252 254 253 248 242 238 238 242 246 250 255 257 258 256 255 256 258 256 255 255 255 253 252 254 257 256 254 258 263 262 255
337 336 337 338 337 335 334 333 333 332 332 331 330 329 329 328 328 328 326 324 324 323 322 321 318 315 313 311 309 310 312 313 310 306 301 297 296 295 293 291 288 285 280 276 270 265 260 257 256 255 253 249 247 248 250 252 253 251 246 242 239 238 238 239 242 244 249 254 255 258 261 259 255 255 253 248 246 248 250 250 250 252 258 262 257
338 337 337 338 337 336 335 334 333 333 332 331 330 330 329 329 329 328 326 325 325 325 324 323 320 316 314 314 315 315 314 312 309 306 303 298 296 296 296 293 291 289 284 277 269 263 258 256 255 254 253 250 249 250 252 254 254 252 250 249 248 245 242 239 236 233 234 244 250 253 258 261 261 255 246 240 239 241 245 245 245 247 253 260 261
338 337 337 338 337 337 336 335 334 333 332 331 330 330 329 329 329 329 327 326 326 326 326 324 322 321 322 322 320 316 313 313 311 308 304 301 297 296 297 296 293 292 288 280 269 261 256 256 255 252 251 251 251 252 256 258 257 253 251 254 256 254 249 244 238 233 231 233 240 248 253 256 258 253 241 236 235 235 236 234 231 236 245 256 269
338 337 337 338 337 338 337 335 334 333 332 331 330 330 329 329 330 330 329 328 328 328 327 326 327 328 327 324 320 316 316 320 318 309 305 302 297 294 297 298 294 291 290 283 271 261 256 254 253 251 250 250 250 251 254 255 254 253 254 257 261 261 256 249 240 233 229 227 231 242 253 256 253 248 239 233 229 221 218 217 209 206 215 236 291
337 337 337 338 338 338 337 335 334 332 332 331 330 329 329 329 330 331 331 330 329 328 329 329 330 330 328 325 323 321 323 326 324 315 307 303 298 294 294 296 293 289 287 283 274 265 259 254 251 250 249 248 249 252 253 248 244 247 252 256 260 264 261 253 244 233 227 224 223 227 237 248 252 250 237 224 217 210 206 203 192 194 208 243 288
336 336 336 337 337 337 336 335 334 333 331 331 330 330 330 330 332 332 332 331 329 329 331 332 332 333 333 331 331 330 330 332 331 323 313 305 299 295 291 291 291 288 286 282 273 264 258 253 251 251 252 252 250 250 252 246 238 240 246 252 256 262 265 259 250 237 228 226 224 222 223 227 234 238 228 214 212 214 213 212 210 214 233 263 279
335 335 336 337 337 337 336 335 334 333 332 332 331 331 332 333 333 333 333 332 330 330 333 334 333 336 339 338 337 338 337 336 336 330 318 307 301 295 290 287 286 285 282 280 274 266 259 253 250 249 251 254 254 252 250 246 240 239 242 247 253 261 267 264 255 243 230 226 227 227 225 224 222 224 223 213 209 217 226 234 239 243 254 266 273
334 334 335 336 336 336 336 335 334 334 334 333 331 332 334 335 336 335 334 333 332 332 335 337 337 339 342 342 341 343 342 340 339 333 321 310 304 297 290 284 280 278 276 273 269 265 261 257 253 249 248 249 250 251 251 249 246 242 242 248 257 263 266 266 258 245 231 226 227 228 228 226 222 217 217 215 213 221 231 237 243 249 255 260 263
334 334 335 336 336 336 336 336 336 335 335 335 333 334 336 338 338 338 336 335 334 335 337 339 339 341 343 344 343 344 345 345 343 337 324 313 307 298 288 281 277 275 274 271 267 265 264 262 259 257 255 251 247 246 248 248 247 245 245 251 257 256 254 259 260 247 231 226 227 227 225 223 221 217 216 217 220 226 233 237 242 249 253 254 257
333 334 335 335 335 336 335 336 337 337 337 336 336 335 337 339 340 340 339 338 337 337 339 341 341 341 343 344 344 344 344 345 345 341 330 316 308 301 290 280 274 271 270 269 268 269 270 268 267 266 263 258 252 247 247 247 246 246 247 246 246 246 243 247 254 249 233 229 232 228 219 216 217 218 219 220 223 226 230 235 240 246 250 254 259
333 334 335 335 335 335 335 336 338 338 339 338 337 337 339 341 342 342 342 341 340 339 339 340 340 340 341 341 342 342 340 341 345 347 340 323 312 309 299 286 278 271 267 265 266 268 268 267 267 267 262 255 251 249 249 248 247 247 246 242 241 242 238 238 245 247 238 233 235 227 216 213 215 219 222 225 228 230 233 236 239 243 249 254 258
333 335 335 335 335 334 335 336 338 339 341 340 338 339 341 342 344 344 343 343 342 339 338 338 339 339 339 338 337 336 335 337 345 351 347 327 316 319 316 307 299 286 273 266 261 260 264 265 262 259 257 252 251 251 250 249 247 245 244 242 240 240 238 235 238 242 240 236 231 221 213 213 216 219 222 225 228 230 231 233 235 238 242 246 247
334 336 336 335 335 335 335 336 338 340 342 341 340 341 343 344 345 345 344 344 341 338 336 337 339 339 337 336 334 331 331 336 346 354 349 326 312 319 320 313 311 308 298 284 269 258 256 258 257 254 254 252 250 252 253 252 248 243 240 238 236 237 239 235 232 235 238 235 228 218 212 211 212 210 208 209 213 217 218 221 225 228 233 238 242
335 337 337 336 335 336 336 337 339 340 341 341 341 342 344 345 345 345 344 341 337 335 335 337 338 337 336 335 332 329 332 338 345 351 349 335 318 316 313 308 308 309 303 295 285 269 253 247 248 251 254 254 251 253 256 255 249 239 230 227 228 232 236 234 231 233 235 231 224 216 209 205 201 197 199 202 206 209 212 216 222 227 233 239 244
337 338 338 336 336 336 337 338 340 340 340 341 342 343 345 346 344 344 343 338 331 329 331 332 334 335 336 337 334 332 336 340 342 344 348 347 341 334 323 310 306 308 303 295 291 278 253 241 242 244 247 250 248 247 249 251 251 244 230 219 218 224 227 226 227 232 234 231 225 217 209 202 198 196 198 199 198 201 207 212 220 227 233 238 242
338 339 338 337 337 337 337 339 340 339 339 340 341 343 345 346 344 342 341 339 334 329 328 328 332 337 340 340 338 339 341 339 336 340 346 349 355 359 350 329 311 306 311 310 298 275 244 236 237 240 246 249 248 254 262 261 254 245 232 220 216 219 223 224 225 229 232 231 225 217 210 204 199 196 195 195 198 203 207 211 216 221 223 225 228
338 340 339 338 338 337 338 340 340 339 339 340 341 341 343 346 346 343 341 344 346 341 333 329 332 340 343 341 340 343 342 335 332 339 346 347 353 4 5 355 338 309 305 321 320 169 148 210 231 257 273 264 271 282 281 273 250 226 217 214 214 215 219 222 223 225 230 230 223 217 213 209 206 203 200 201 205 207 208 211 215 218 218 218 214
338 339 340 338 338 338 338 340 340 338 340 341 342 341 342 343 346 347 346 347 348 346 341 335 334 340 343 342 343 344 341 335 333 336 343 347 354 3 7 4 1 344 309 344 67 130 184 309 266 272 268 263 286 284 231 167 139 179 198 203 208 210 215 220 223 225 228 228 223 220 219 217 213 209 205 206 210 211 209 210 212 215 217 218 218
336 338 339 338 338 339 339 340 339 338 340 342 342 343 342 341 343 346 349 350 349 348 349 347 343 341 342 347 351 350 344 340 338 336 338 340 345 355 3 7 15 37 88 89 88 151 255 300 311 307 273 245 272 227 151 138 125 129 143 152 166 180 193 205 213 218 222 223 224 224 223 217 210 205 204 208 213 212 208 207 209 212 214 217 221
336 337 338 338 339 339 340 340 340 339 340 342 343 344 343 342 341 342 345 348 349 351 354 354 352 350 349 351 357 356 348 342 341 341 341 336 333 341 353 1 15 39 65 70 65 71 79 76 79 78 78 95 109 106 113 121 121 125 131 132 134 142 151 161 171 181 191 198 202 204 202 198 197 199 201 204 205 204 204 206 211 216 221 225 231
336 337 338 338 339 340 341 340 340 340 340 341 342 342 342 342 342 342 343 345 346 348 352 354 355 356 354 353 358 359 355 352 352 351 346 336 330 335 340 341 353 22 38 44 49 54 57 57 67 82 86 91 100 94 82 81 83 86 106 135 146 153 160 162 164 169 175 179 183 186 187 190 195 198 200 203 205 208 213 218 222 226 228 231 235
336 336 338 339 339 341 342 341 340 340 340 341 342 341 341 342 343 343 343 343 343 344 346 349 353 356 355 353 357 0 360 359 0 360 354 344 335 333 330 328 336 359 15 26 34 39 42 46 55 68 79 88 96 90 78 72 52 18 9 359 245 224 216 213 214 215 213 210 209 207 205 207 209 210 212 216 219 222 226 229 232 234 233 230 231
336 337 338 339 340 341 342 342 340 340 341 341 340 339 340 342 343 343 343 343 342 343 344 346 349 352 353 353 356 0 3 3 4 5 5 1 353 344 340 345 353 357 2 12 22 28 31 33 36 45 57 146 211 230 240 258 276 283 285 279 269 259 248 241 236 233 229 225 223 221 220 220 221 221 222 223 225 227 229 230 233 236 236 234 232
336 337 338 339 340 341 342 341 341 340 340 340 339 338 339 341 342 343 343 342 342 343 345 346 348 350 351 354 358 1 2 3 5 8 13 13 10 8 10 14 13 7 6 8 8 9 12 6 348 315 269 251 249 247 245 246 249 253 258 261 259 257 254 248 242 238 236 233 231 230 230 230 230 230 230 230 231 231 231 232 233 234 236 236 234
335 336 337 339 340 341 341 340 340 340 340 340 340 339 339 341 342 342 343 343 343 343 345 348 351 351 351 353 357 359 358 357 360 6 12 15 16 18 20 21 21 20 18 15 9 3 359 350 330 308 283 265 257 253 251 251 251 251 253 256 258 260 260 259 257 254 250 247 244 241 239 239 238 238 237 236 236 235 234 234 234 234 234 235 234
334 335 337 338 339 340 340 339 339 339 340 340 341 340 339 340 341 341 341 342 343 344 345 347 350 352 352 354 356 356 355 356 1 5 8 11 13 15 16 17 20 22 22 20 16 11 3 356 348 332 308 285 270 263 260 258 257 257 258 259 261 263 264 264 264 261 256 251 248 244 241 240 238 238 237 236 235 236 235 233 232 231 231 232 232
333 334 336 339 340 340 340 339 338 338 339 340 340 340 340 340 340 340 341 342 342 343 345 346 348 350 353 355 356 354 352 354 0 4 4 5 8 10 12 13 13 15 17 18 19 16 10 5 360 352 342 324 297 272 264 262 259 257 258 257 256 257 258 258 256 252 246 242 239 236 235 234 232 231 231 229 228 228 229 228 227 226 227 228 226
332 333 335 338 339 339 339 339 338 338 338 338 339 340 340 340 339 339 339 341 341 342 344 345 346 348 351 353 354 352 349 350 355 358 358 359 1 4 8 9 8 8 9 10 13 16 16 12 7 2 2 359 347 326 288 253 242 236 235 232 230 233 236 237 238 236 233 232 231 228 227 226 224 222 222 220 220 222 223 223 222 221 221 222 219
330 331 333 336 338 338 338 338 338 337 337 337 338 340 339 338 338 338 338 339 340 341 342 343 344 346 348 350 351 350 348 348 349 349 349 350 352 356 360 3 4 4 3 2 2 5 9 12 11 7 7 8 9 12 23 42 100 160 175 180 185 196 205 210 215 221 222 224 227 226 224 222 222 221 221 221 221 222 221 221 221 221 221 222 221
328 329 331 334 335 336 337 337 337 337 337 336 337 339 338 337 337 337 337 339 340 340 340 342 343 344 346 347 348 348 348 348 348 346 344 343 344 347 352 354 355 357 358 357 356 355 356 1 7 7 9 11 13 15 21 26 41 77 115 138 151 163 172 178 186 196 204 210 216 218 218 219 219 220 220 219 218 219 220 221 223 224 224 226 227
326 327 329 331 332 333 334 335 335 336 336 335 335 336 337 337 337 337 337 338 339 340 340 340 341 343 344 345 346 347 348 349 348 347 344 341 339 342 346 347 346 347 349 350 351 349 348 348 350 356 6 13 13 13 13 14 23 47 80 102 123 142 149 151 159 166 173 181 188 195 201 204 207 210 212 212 212 214 216 218 221 224 226 227 228
326 326 327 328 329 331 332 333 333 334 334 334 334 334 335 336 336 337 337 337 338 338 339 340 341 341 343 344 345 345 346 348 347 346 344 343 341 342 343 344 342 342 342 343 343 343 343 341 338 338 342 351 3 12 6 357 356 10 53 92 112 134 148 152 153 153 156 160 165 170 177 183 188 194 198 202 207 211 213 214 217 221 222 224 226
326 326 325 326 327 328 330 330 331 331 332 332 332 332 334 335 335 336 337 338 338 337 337 338 339 341 342 343 344 343 343 344 345 344 343 342 342 342 343 343 342 341 339 337 336 335 335 335 331 326 322 321 316 308 307 325 329 325 324 316 155 158 161 163 162 160 159 161 163 165 170 170 169 169 173 179 188 196 202 206 210 214 217 218 219
326 325 325 325 325 326 327 328 328 329 330 330 330 331 332 332 333 334 335 337 337 337 336 335 337 339 340 342 342 341 341 342 343 343 342 342 341 341 342 342 342 341 340 336 332 329 328 329 327 321 313 307 298 284 264 243 234 251 270 274 258 222 200 192 186 179 175 173 172 173 175 173 169 165 162 161 164 168 176 188 197 203 208 209 211
325 324 324 324 325 325 326 326 326 327 327 328 328 329 329 330 330 331 333 334 336 337 336 335 335 336 338 340 340 340 339 339 340 341 342 341 341 341 341 341 341 342 341 338 333 327 323 323 322 319 312 303 295 286 273 259 244 229 228 242 252 249 237 224 213 203 196 190 184 182 181 178 176 173 169 163 159 154 152 158 169 179 188 196 201
325 324 324 324 324 325 325 325 325 325 326 326 326 327 327 328 328 329 331 332 334 335 336 336 336 335 335 336 338 338 338 338 339 340 342 342 342 341 340 340 339 339 340 340 338 332 326 321 318 317 314 306 298 289 280 271 262 249 234 228 230 237 243 242 233 223 214 206 199 194 191 188 185 183 178 173 169 163 154 148 147 151 159 173 184
324 324 324 324 324 324 324 323 323 324 325 325 325 326 326 325 325 327 329 330 331 332 334 335 337 336 335 334 334 335 336 337 338 339 340 342 342 341 341 340 338 337 339 340 339 337 332 325 320 317 314 310 305 297 288 279 270 259 250 238 226 223 229 235 236 234 227 217 211 206 202 197 195 192 187 183 179 176 169 160 153 150 148 149 157
324 324 324 324 324 324 323 323 323 324 325 325 325 325 324 323 323 324 326 328 329 330 331 333 335 337 335 333 332 332 333 335 336 337 338 339 340 341 341 340 338 337 337 338 338 338 336 331 327 322 318 314 310 303 293 284 275 267 261 254 243 232 224 224 229 233 232 228 223 217 211 207 203 200 195 192 189 186 182 177 169 163 159 154 149
Height
1470 1466 1463 1461 1458 1455 1452 1449 1447 1444 1441 1438 1435 1432 1428 1425 1422 1418 1415 1413 1410 1407 1404 1402 1399 1397 1395 1393 1391 1390 1388 1387 1386 1385 1383 1381 1380 1379 1378 1377 1376 1374 1373 1373 1372 1372 1371 1369 1368 1369 1371 1371 1371 1372 1373 1374 1375 1375 1375 1375 1376 1376 1377 1377 1374 1371 1373 1377 1378 1378 1380 1380 1380 1380 1381 1382 1383 1383 1383 1382 1382 1381 1380 1380 1380
1467 1464 1461 1458 1455 1452 1450 1447 1444 1441 1437 1434 1431 1427 1424 1420 1417 1414 1411 1408 1405 1402 1399 1396 1394 1391 1388 1386 1384 1382 1381 1379 1378 1378 1376 1374 1373 1372 1371 1370 1369 1368 1367 1366 1365 1366 1364 1363 1363 1364 1366 1366 1366 1367 1368 1369 1370 1369 1370 1370 1370 1371 1372 1372 1371 1370 1370 1372 1374 1375 1376 1376 1375 1375 1377 1378 1378 1379 1378 1378 1378 1377 1376 1376 1376
1465 1462 1458 1456 1453 1450 1447 1443 1440 1437 1433 1430 1427 1423 1420 1417 1413 1410 1406 1403 1400 1397 1394 1390 1388 1385 1382 1380 1378 1376 1374 1372 1371 1370 1368 1367 1365 1364 1364 1364 1362 1361 1360 1359 1359 1360 1359 1357 1357 1359 1361 1361 1361 1362 1363 1363 1364 1364 1365 1366 1366 1366 1368 1368 1368 1367 1367 1368 1370 1371 1372 1371 1371 1371 1373 1374 1374 1375 1374 1374 1374 1373 1373 1372 1371
1462 1459 1456 1453 1450 1446 1442 1439 1436 1433 1430 1426 1423 1420 1416 1413 1409 1406 1402 1399 1395 1392 1389 1386 1382 1379 1377 1374 1372 1370 1368 1366 1364 1363 1361 1360 1358 1357 1357 1356 1356 1354 1354 1353 1353 1354 1353 1352 1352 1354 1355 1355 1356 1357 1358 1358 1359 1359 1360 1361 1361 1362 1363 1364 1364 1364 1364 1364 1365 1367 1368 1367 1367 1368 1369 1369 1370 1370 1370 1370 1369 1369 1369 1368 1367
1459 1456 1452 1449 1446 1442 1439 1436 1433 1429 1426 1423 1419 1416 1412 1409 1405 1402 1398 1394 1390 1387 1384 1381 1378 1374 1371 1369 1366 1364 1362 1361 1359 1358 1356 1355 1353 1352 1351 1350 1349 1348 1347 1347 1347 1348 1347 1346 1347 1349 1350 1350 1350 1351 1352 1353 1354 1354 1355 1356 1357 1357 1358 1359 1359 1360 1360 1360 1361 1363 1363 1363 1363 1364 1365 1365 1366 1366 1366 1365 1365 1365 1364 1364 1364
1456 1453 1450 1447 1443 1440 1437 1433 1430 1426 1423 1419 1415 1412 1408 1405 1401 1398 1394 1390 1386 1383 1379 1376 1373 1370 1367 1365 1362 1359 1358 1356 1354 1353 1351 1349 1347 1346 1345 1344 1344 1343 1342 1341 1342 1342 1341 1341 1342 1343 1344 1344 1345 1346 1347 1348 1349 1349 1350 1351 1352 1353 1354 1354 1355 1356 1356 1356 1357 1358 1359 1359 1359 1359 1360 1361 1362 1362 1362 1362 1362 1361 1361 1360 1360
1454 1451 1448 1445 1441 1437 1434 1430 1427 1423 1419 1416 1412 1408 1405 1401 1398 1394 1390 1387 1382 1379 1375 1372 1369 1366 1363 1361 1358 1356 1353 1351 1349 1347 1346 1344 1342 1340 1339 1338 1337 1337 1336 1335 1335 1335 1335 1336 1336 1337 1338 1339 1340 1341 1342 1343 1344 1345 1345 1346 1348 1349 1349 1350 1351 1351 1351 1352 1353 1353 1354 1355 1355 1355 1356 1357 1358 1358 1358 1358 1357 1357 1358 1357 1356
1453 1450 1446 1443 1438 1434 1431 1427 1424 1420 1416 1413 1409 1405 1402 1398 1394 1391 1387 1383 1379 1376 1372 1368 1365 1362 1359 1357 1354 1351 1349 1346 1344 1343 1341 1339 1338 1336 1335 1333 1332 1331 1330 1329 1330 1330 1330 1330 1331 1332 1333 1334 1335 1336 1337 1338 1339 1340 1341 1342 1343 1344 1345 1345 1346 1347 1347 1348 1348 1349 1350 1351 1351 1352 1352 1353 1353 1354 1355 1355 1353 1353 1354 1355 1354
1450 1447 1443 1439 1435 1431 1428 1424 1421 1418 1414 1410 1406 1402 1398 1395 1391 1387 1383 1380 1376 1373 1369 1366 1362 1358 1356 1353 1350 1348 1345 1342 1340 1339 1337 1335 1334 1332 1330 1329 1327 1326 1325 1324 1324 1324 1324 1325 1326 1327 1328 1329 1330 1331 1333 1334 1335 1335 1336 1337 1339 1339 1340 1341 1342 1343 1344 1344 1344 1345 1346 1346 1346 1348 1348 1348 1350 1351 1352 1352 1350 1350 1351 1352 1352
1448 1444 1441 1437 1433 1429 1426 1422 1419 1415 1411 1407 1403 1399 1395 1392 1388 1384 1380 1377 1373 1370 1366 1363 1359 1356 1352 1349 1346 1344 1341 1338 1336 1335 1334 1333 1331 1329 1326 1324 1323 1321 1320 1320 1319 1319 1319 1320 1321 1322 1323 1324 1325 1327 1328 1329 1330 1331 1331 1333 1334 1335 1336 1337 1338 1339 1339 1340 1340 1341 1341 1341 1342 1343 1344 1345 1346 1348 1348 1348 1348 1348 1348 1348 1349
1446 1442 1439 1435 1431 1427 1423 1419 1416 1413 1409 1405 1400 1397 1393 1389 1385 1381 1377 1373 1369 1366 1362 1359 1356 1352 1349 1345 1342 1340 1337 1334 1332 1331 1330 1329 1327 1324 1322 1320 1319 1317 1316 1315 1314 1314 1315 1315 1316 1317 1318 1320 1321 1322 1324 1325 1326 1327 1327 1328 1328 1330 1331 1332 1333 1335 1335 1335 1336 1337 1337 1337 1338 1339 1340 1342 1343 1344 1345 1345 1345 1346 1346 1346 1346
1443 1440 1437 1433 1429 1425 1420 1416 1413 1409 1406 1402 1397 1394 1389 1385 1381 1377 1373 1369 1365 1362 1358 1355 1352 1349 1346 1342 1338 1336 1333 1330 1329 1327 1325 1324 1322 1320 1318 1316 1314 1312 1311 1310 1310 1310 1310 1310 1311 1312 1314 1315 1316 1318 1319 1320 1322 1323 1324 1325 1325 1326 1327 1328 1329 1330 1331 1331 1331 1332 1332 1333 1334 1335 1336 1338 1340 1340 1342 1342 1342 1343 1343 1343 1343
1441 1437 1434 1430 1426 1422 1418 1414 1410 1406 1402 1398 1394 1390 1386 1381 1378 1373 1369 1365 1361 1358 1354 1351 1348 1345 1342 1338 1334 1331 1328 1326 1324 1323 1321 1319 1318 1316 1314 1311 1310 1308 1306 1305 1305 1305 1306 1306 1307 1308 1309 1311 1312 1313 1315 1316 1317 1319 1320 1321 1322 1323 1324 1325 1325 1326 1326 1327 1327 1327 1328 1329 1329 1331 1333 1335 1336 1337 1338 1339 1339 1340 1340 1339 1339
1439 1435 1431 1427 1424 1419 1415 1411 1407 1403 1399 1395 1390 1386 1382 1378 1374 1370 1365 1361 1357 1353 1350 1346 1343 1340 1338 1334 1330 1327 1324 1322 1320 1318 1316 1315 1313 1312 1309 1307 1305 1303 1301 1301 1300 1301 1302 1302 1303 1304 1305 1307 1308 1309 1311 1312 1313 1314 1315 1316 1317 1318 1319 1321 1321 1322 1323 1323 1323 1323 1325 1326 1326 1327 1330 1332 1333 1334 1335 1336 1337 1337 1337 1336 1336
1436 1432 1428 1425 1421 1417 1412 1408 1403 1400 1396 1391 1387 1382 1378 1374 1370 1366 1362 1358 1354 1350 1346 1342 1339 1336 1334 1330 1326 1322 1320 1319 1316 1314 1312 1310 1309 1307 1305 1303 1300 1298 1297 1297 1296 1297 1298 1298 1299 1300 1302 1303 1304 1306 1307 1308 1309 1309 1310 1311 1311 1313 1314 1315 1317 1318 1319 1319 1319 1320 1322 1323 1324 1325 1326 1328 1329 1331 1332 1333 1334 1334 1334 1334 1334
1433 1429 1426 1422 1418 1414 1409 1404 1400 1396 1392 1387 1383 1379 1374 1370 1367 1363 1358 1354 1351 1347 1343 1340 1336 1332 1329 1326 1322 1319 1316 1315 1312 1310 1308 1306 1304 1302 1300 1298 1296 1295 1293 1293 1293 1293 1294 1295 1296 1297 1298 1299 1301 1302 1303 1304 1305 1305 1306 1306 1307 1308 1308 1310 1312 1314 1315 1316 1317 1317 1319 1320 1321 1322 1323 1325 1326 1328 1329 1331 1331 1332 1332 1332 1332
1430 1426 1423 1419 1415 1412 1407 1402 1397 1393 1389 1384 1380 1375 1371 1367 1364 1360 1355 1350 1347 1344 1340 1336 1333 1329 1325 1323 1320 1316 1312 1311 1308 1306 1304 1302 1300 1298 1296 1294 1293 1291 1290 1290 1290 1290 1291 1292 1292 1293 1294 1295 1297 1299 1300 1300 1300 1301 1302 1303 1303 1303 1304 1305 1308 1309 1311 1313 1314 1315 1317 1318 1319 1320 1321 1322 1324 1325 1327 1328 1328 1329 1330 1330 1330
1428 1424 1421 1417 1413 1409 1405 1401 1396 1391 1387 1382 1378 1373 1369 1365 1361 1358 1353 1348 1344 1341 1337 1333 1330 1327 1323 1320 1317 1313 1309 1307 1305 1302 1299 1298 1296 1295 1293 1291 1289 1288 1287 1287 1287 1287 1288 1288 1289 1290 1291 1292 1294 1295 1296 1297 1297 1297 1298 1299 1299 1299 1300 1301 1303 1304 1306 1309 1310 1312 1314 1315 1316 1318 1319 1320 1322 1323 1324 1325 1326 1327 1328 1329 1329
1426 1422 1418 1415 1411 1408 1403 1399 1394 1389 1385 1380 1376 1371 1367 1363 1359 1355 1351 1347 1342 1338 1335 1331 1327 1324 1321 1317 1315 1311 1307 1303 1301 1298 1296 1294 1293 1291 1289 1288 1286 1285 1284 1284 1284 1284 1285 1285 1286 1287 1287 1289 1290 1291 1292 1294 1294 1294 1295 1295 1295 1295 1296 1298 1299 1300 1302 1304 1306 1308 1310 1312 1313 1315 1316 1318 1320 1321 1322 1323 1324 1325 1326 1326 1327
1424 1420 1416 1413 1409 1405 1401 1397 1392 1388 1383 1378 1373 1369 1365 1361 1356 1352 1348 1344 1340 1336 1333 1329 1325 1321 1318 1315 1312 1308 1304 1300 1297 1295 1292 1291 1289 1288 1286 1285 1283 1282 1281 1281 1281 1281 1281 1282 1283 1283 1284 1285 1286 1287 1288 1290 1291 1291 1292 1292 1291 1292 1293 1295 1296 1297 1298 1300 1302 1304 1307 1309 1310 1312 1314 1316 1318 1319 1320 1321 1322 1323 1324 1324 1325
1421 1417 1414 1410 1406 1402 1399 1394 1390 1385 1380 1375 1371 1367 1363 1359 1354 1350 1345 1341 1338 1333 1330 1327 1323 1318 1315 1312 1309 1305 1301 1297 1294 1292 1289 1287 1286 1284 1283 1281 1280 1279 1278 1278 1277 1277 1277 1278 1279 1280 1281 1282 1283 1284 1285 1286 1287 1287 1288 1288 1288 1290 1291 1291 1292 1294 1295 1296 1298 1300 1303 1305 1307 1309 1311 1313 1315 1316 1318 1319 1319 1321 1322 1322 1323
1418 1415 1411 1407 1403 1399 1396 1392 1387 1382 1378 1373 1368 1363 1360 1357 1352 1348 1344 1339 1335 1331 1328 1324 1321 1316 1313 1310 1306 1303 1299 1295 1291 1289 1286 1284 1282 1280 1279 1278 1277 1276 1275 1274 1274 1274 1274 1274 1275 1276 1277 1278 1280 1281 1281 1282 1284 1284 1284 1285 1286 1288 1289 1288 1289 1291 1292 1293 1294 1296 1298 1301 1303 1305 1307 1310 1312 1313 1315 1316 1317 1318 1319 1320 1322
1416 1412 1408 1404 1401 1397 1393 1389 1385 1380 1375 1371 1365 1361 1357 1354 1350 1346 1342 1337 1333 1329 1325 1322 1319 1315 1311 1307 1303 1300 1296 1293 1289 1286 1283 1280 1278 1276 1275 1274 1274 1273 1272 1271 1271 1271 1271 1271 1271 1272 1273 1274 1275 1277 1278 1279 1280 1280 1281 1283 1284 1285 1286 1287 1287 1288 1289 1290 1291 1292 1294 1297 1300 1302 1304 1306 1308 1310 1312 1313 1315 1316 1317 1318 1319
1413 1410 1406 1402 1398 1394 1390 1386 1382 1378 1373 1368 1363 1359 1355 1351 1348 1344 1340 1336 1331 1327 1324 1321 1317 1314 1309 1305 1301 1297 1294 1291 1287 1284 1281 1278 1275 1273 1272 1271 1270 1270 1269 1268 1268 1268 1268 1268 1268 1269 1270 1271 1272 1273 1274 1275 1276 1277 1278 1280 1281 1283 1284 1284 1285 1286 1287 1288 1289 1290 1292 1294 1297 1299 1301 1303 1306 1308 1309 1311 1312 1314 1315 1316 1317
1410 1407 1403 1399 1395 1391 1387 1383 1380 1376 1372 1367 1362 1357 1353 1349 1345 1342 1338 1334 1330 1326 1323 1320 1317 1313 1309 1304 1300 1296 1293 1290 1285 1281 1279 1276 1274 1272 1270 1269 1268 1267 1266 1265 1264 1265 1265 1265 1266 1266 1267 1268 1269 1270 1270 1271 1272 1273 1275 1276 1278 1279 1281 1282 1282 1283 1284 1285 1287 1288 1290 1292 1295 1297 1300 1302 1303 1305 1306 1308 1310 1311 1313 1314 1315
1407 1404 1400 1396 1393 1389 1384 1380 1377 1373 1370 1365 1361 1356 1352 1348 1344 1340 1336 1333 1330 1326 1323 1319 1316 1312 1308 1305 1300 1296 1292 1289 1284 1280 1278 1275 1273 1271 1269 1267 1266 1264 1263 1262 1261 1261 1262 1263 1264 1264 1265 1265 1266 1267 1267 1268 1268 1269 1271 1273 1275 1276 1277 1279 1280 1281 1282 1283 1285 1286 1288 1291 1293 1295 1298 1299 1301 1302 1304 1306 1308 1309 1311 1312 1312
1405 1401 1398 1394 1390 1386 1382 1377 1373 1370 1367 1363 1359 1355 1351 1347 1343 1339 1335 1332 1329 1326 1322 1319 1316 1313 1309 1305 1301 1296 1292 1288 1283 1279 1277 1274 1271 1269 1267 1265 1263 1262 1261 1259 1258 1258 1258 1260 1261 1262 1262 1263 1264 1264 1265 1265 1265 1266 1267 1269 1271 1273 1275 1276 1278 1278 1280 1281 1283 1285 1287 1289 1292 1294 1295 1297 1299 1301 1303 1305 1306 1308 1309 1310 1310
1403 1399 1395 1391 1388 1384 1380 1376 1371 1367 1364 1360 1356 1352 1349 1345 1341 1338 1335 1333 1330 1326 1323 1320 1317 1314 1310 1306 1301 1296 1292 1287 1283 1280 1277 1274 1270 1267 1264 1261 1260 1259 1258 1257 1256 1255 1255 1257 1259 1260 1260 1261 1262 1262 1262 1262 1263 1263 1265 1266 1268 1270 1272 1274 1275 1276 1278 1280 1282 1284 1286 1288 1290 1292 1294 1296 1298 1300 1302 1303 1305 1306 1307 1307 1308
1401 1397 1393 1389 1385 1382 1378 1374 1370 1366 1362 1358 1355 1352 1348 1345 1340 1337 1335 1333 1330 1327 1324 1321 1319 1315 1311 1306 1303 1298 1293 1288 1284 1281 1278 1274 1270 1266 1262 1258 1257 1256 1256 1255 1254 1253 1254 1256 1257 1259 1259 1260 1260 1260 1260 1260 1260 1260 1262 1264 1266 1268 1270 1271 1273 1274 1276 1278 1280 1282 1284 1286 1288 1290 1293 1295 1297 1299 1300 1302 1304 1305 1305 1306 1306
1398 1394 1391 1387 1383 1379 1376 1372 1369 1365 1360 1356 1352 1348 1346 1345 1342 1337 1333 1330 1328 1326 1323 1321 1318 1314 1309 1306 1303 1300 1296 1290 1285 1282 1278 1274 1270 1266 1262 1259 1256 1255 1255 1254 1254 1254 1255 1256 1257 1258 1258 1259 1259 1258 1258 1257 1257 1258 1259 1262 1264 1265 1267 1269 1271 1273 1274 1276 1278 1280 1283 1285 1287 1289 1291 1293 1295 1297 1299 1300 1302 1303 1303 1304 1305
1395 1392 1389 1385 1381 1378 1374 1370 1366 1363 1359 1355 1350 1345 1341 1339 1338 1337 1333 1328 1325 1323 1321 1319 1316 1312 1308 1304 1301 1297 1294 1290 1286 1282 1278 1275 1271 1267 1264 1260 1257 1255 1255 1255 1255 1256 1256 1257 1257 1258 1258 1258 1258 1258 1257 1257 1257 1257 1258 1260 1261 1264 1265 1267 1269 1271 1273 1274 1276 1279 1281 1283 1285 1287 1289 1292 1294 1296 1297 1299 1300 1301 1302 1303 1303
1394 1390 1387 1383 1380 1376 1372 1369 1365 1361 1357 1353 1349 1345 1339 1334 1331 1330 1329 1327 1324 1321 1318 1315 1312 1309 1306 1303 1299 1295 1292 1288 1285 1282 1279 1275 1272 1269 1267 1263 1260 1257 1257 1257 1257 1257 1257 1257 1257 1257 1258 1258 1258 1258 1258 1258 1259 1259 1260 1260 1261 1263 1264 1266 1268 1270 1271 1273 1275 1277 1279 1281 1284 1286 1288 1290 1292 1294 1295 1297 1298 1299 1300 1301 1302
1393 1390 1386 1382 1378 1375 1371 1367 1364 1360 1356 1352 1348 1344 1340 1335 1329 1324 1322 1321 1320 1318 1316 1313 1310 1306 1303 1300 1298 1295 1292 1288 1285 1282 1278 1275 1272 1270 1269 1267 1264 1261 1259 1259 1258 1258 1258 1258 1258 1258 1258 1258 1259 1259 1259 1260 1260 1261 1261 1262 1262 1263 1265 1266 1267 1269 1270 1272 1274 1276 1278 1280 1282 1284 1286 1288 1290 1292 1293 1295 1296 1297 1298 1299 1300
1392 1389 1385 1381 1377 1373 1369 1366 1362 1358 1355 1351 1347 1344 1340 1336 1332 1326 1320 1316 1313 1312 1311 1310 1307 1304 1301 1298 1295 1293 1290 1287 1284 1281 1278 1275 1272 1271 1270 1268 1266 1264 1262 1261 1260 1260 1260 1259 1259 1259 1259 1259 1260 1260 1260 1261 1261 1262 1262 1263 1263 1264 1265 1267 1268 1269 1270 1272 1274 1276 1278 1280 1281 1283 1285 1286 1288 1289 1291 1293 1294 1295 1296 1297 1298
1391 1387 1384 1380 1376 1372 1368 1364 1361 1357 1354 1350 1347 1343 1340 1336 1332 1328 1324 1319 1314 1310 1307 1305 1304 1302 1299 1296 1293 1291 1289 1287 1284 1281 1278 1274 1272 1270 1269 1268 1266 1265 1263 1262 1262 1261 1261 1261 1260 1260 1260 1260 1261 1261 1261 1261 1262 1263 1263 1264 1264 1265 1266 1267 1268 1270 1271 1272 1274 1276 1277 1279 1280 1282 1283 1284 1286 1287 1289 1290 1292 1293 1294 1295 1296
1388 1384 1381 1378 1374 1370 1367 1363 1360 1356 1353 1349 1346 1343 1340 1336 1332 1328 1325 1321 1317 1313 1308 1305 1302 1301 1299 1296 1293 1290 1288 1286 1284 1281 1278 1275 1272 1270 1268 1267 1266 1265 1264 1263 1263 1262 1262 1261 1261 1261 1261 1261 1261 1261 1262 1262 1262 1263 1263 1264 1264 1265 1266 1267 1268 1270 1271 1272 1274 1275 1276 1277 1279 1280 1281 1282 1283 1285 1286 1288 1289 1290 1291 1293 1294
1386 1382 1379 1375 1372 1368 1365 1362 1359 1355 1352 1349 1345 1342 1338 1335 1332 1328 1325 1321 1317 1313 1310 1305 1302 1298 1296 1294 1291 1289 1287 1286 1284 1281 1278 1275 1272 1270 1268 1267 1266 1265 1265 1264 1263 1262 1262 1261 1261 1261 1260 1260 1261 1261 1261 1261 1262 1263 1263 1263 1264 1264 1265 1266 1267 1269 1270 1271 1272 1273 1274 1275 1276 1277 1278 1280 1281 1282 1283 1285 1286 1287 1288 1290 1291
1384 1381 1377 1374 1370 1367 1363 1360 1357 1354 1351 1348 1344 1341 1337 1334 1331 1327 1324 1321 1317 1314 1310 1306 1303 1299 1295 1293 1290 1288 1287 1285 1282 1280 1277 1275 1272 1271 1270 1269 1267 1266 1265 1264 1264 1263 1262 1261 1261 1260 1260 1260 1260 1260 1260 1260 1260 1261 1262 1262 1263 1263 1264 1265 1266 1267 1268 1269 1270 1270 1271 1272 1273 1274 1276 1277 1278 1279 1280 1282 1283 1284 1285 1286 1288
1382 1379 1376 1372 1369 1365 1362 1359 1355 1352 1349 1346 1343 1339 1336 1333 1329 1326 1323 1320 1317 1313 1310 1307 1304 1301 1297 1294 1291 1289 1286 1284 1282 1279 1277 1276 1274 1273 1271 1270 1268 1267 1266 1265 1264 1263 1263 1262 1261 1260 1259 1259 1259 1258 1258 1259 1259 1259 1260 1261 1261 1262 1262 1263 1263 1264 1265 1266 1267 1268 1269 1270 1270 1272 1273 1274 1275 1276 1277 1278 1280 1281 1282 1283 1284
1379 1376 1373 1370 1367 1364 1361 1357 1354 1351 1347 1344 1341 1338 1335 1331 1328 1325 1322 1319 1316 1313 1310 1307 1304 1301 1298 1295 1293 1290 1288 1285 1283 1281 1279 1277 1276 1274 1272 1270 1269 1268 1267 1266 1264 1263 1263 1262 1261 1260 1259 1259 1258 1258 1258 1258 1258 1258 1258 1259 1259 1260 1260 1261 1262 1262 1263 1264 1264 1265 1266 1267 1268 1269 1270 1271 1272 1273 1274 1275 1277 1278 1279 1280 1281
1376 1373 1371 1368 1365 1362 1359 1356 1353 1350 1346 1343 1340 1337 1334 1331 1327 1324 1321 1318 1315 1313 1310 1307 1305 1302 1299 1297 1295 1292 1290 1287 1285 1283 1281 1279 1277 1275 1273 1272 1270 1269 1267 1266 1265 1264 1263 1262 1262 1261 1260 1259 1258 1258 1257 1257 1257 1257 1257 1257 1258 1258 1259 1259 1260 1260 1261 1262 1262 1263 1264 1265 1266 1267 1268 1269 1270 1271 1272 1273 1274 1275 1276 1278 1279
1374 1371 1368 1365 1362 1359 1356 1354 1351 1348 1345 1342 1339 1336 1333 1330 1327 1324 1321 1318 1315 1312 1309 1307 1305 1302 1300 1297 1295 1293 1290 1288 1286 1284 1282 1280 1278 1276 1274 1273 1271 1269 1268 1267 1265 1264 1263 1262 1261 1261 1260 1259 1259 1258 1258 1257 1257 1256 1256 1257 1257 1257 1257 1258 1258 1259 1260 1260 1261 1262 1263 1264 1264 1265 1266 1267 1268 1269 1270 1271 1272 1273 1275 1276 1277
1371 1368 1366 1363 1360 1357 1354 1351 1349 1346 1343 1340 1337 1334 1332 1329 1326 1323 1320 1317 1314 1312 1309 1306 1304 1301 1299 1297 1295 1292 1290 1288 1286 1284 1282 1280 1278 1277 1275 1273 1272 1270 1269 1267 1266 1265 1263 1262 1261 1261 1260 1260 1259 1259 1258 1258 1257 1257 1256 1256 1256 1256 1257 1257 1258 1258 1259 1259 1260 1261 1261 1262 1263 1264 1264 1265 1266 1267 1268 1270 1271 1272 1273 1274 1275
1369 1366 1363 1360 1358 1355 1353 1350 1347 1344 1341 1338 1336 1333 1330 1327 1325 1322 1319 1316 1313 1311 1308 1305 1303 1300 1298 1296 1294 1292 1289 1287 1285 1283 1281 1280 1278 1276 1275 1273 1272 1270 1269 1267 1266 1265 1264 1263 1262 1261 1260 1260 1259 1259 1259 1258 1258 1257 1257 1257 1257 1257 1257 1257 1258 1258 1258 1259 1259 1260 1261 1261 1262 1263 1263 1264 1265 1266 1267 1268 1269 1270 1271 1272 1274
1366 1363 1360 1358 1355 1353 1350 1347 1345 1342 1339 1336 1334 1331 1328 1326 1323 1320 1318 1315 1312 1310 1307 1305 1302 1300 1297 1295 1293 1291 1289 1287 1285 1283 1281 1279 1278 1276 1274 1273 1271 1270 1269 1267 1266 1265 1264 1263 1262 1261 1260 1260 1259 1259 1258 1258 1258 1258 1257 1257 1257 1257 1257 1257 1258 1258 1258 1259 1259 1260 1260 1261 1261 1262 1263 1263 1264 1265 1266 1267 1268 1269 1270 1271 1272
1364 1361 1358 1355 1352 1350 1347 1344 1342 1339 1337 1334 1331 1329 1326 1324 1321 1319 1316 1314 1311 1308 1306 1304 1302 1299 1297 1295 1292 1290 1288 1286 1285 1283 1281 1279 1277 1276 1274 1273 1271 1270 1268 1267 1266 1264 1263 1262 1262 1261 1260 1259 1259 1258 1258 1258 1258 1258 1258 1257 1257 1257 1257 1258 1258 1258 1258 1259 1259 1259 1260 1261 1261 1262 1262 1263 1264 1264 1265 1266 1267 1267 1268 1270 1271
1361 1358 1356 1353 1350 1347 1344 1342 1339 1336 1334 1332 1329 1326 1324 1322 1319 1317 1315 1312 1310 1308 1305 1303 1300 1298 1296 1294 1292 1290 1288 1286 1284 1282 1281 1279 1277 1275 1274 1272 1270 1269 1268 1267 1265 1264 1263 1262 1261 1261 1260 1259 1259 1258 1258 1257 1257 1257 1257 1257 1257 1257 1257 1258 1258 1258 1258 1258 1259 1259 1260 1260 1261 1261 1262 1263 1263 1264 1264 1265 1266 1267 1267 1268 1269
1358 1356 1353 1350 1347 1344 1342 1339 1336 1334 1331 1329 1327 1324 1322 1320 1317 1315 1313 1311 1309 1306 1304 1302 1299 1297 1295 1293 1291 1289 1287 1285 1283 1282 1280 1278 1277 1275 1273 1272 1270 1269 1267 1266 1265 1264 1263 1262 1261 1260 1260 1259 1258 1258 1258 1257 1257 1257 1257 1257 1257 1257 1257 1257 1258 1258 1258 1258 1258 1259 1259 1260 1260 1261 1262 1263 1263 1264 1264 1265 1265 1266 1266 1267 1268
1355 1353 1350 1348 1345 1342 1339 1336 1333 1331 1328 1326 1324 1322 1319 1317 1315 1313 1311 1309 1307 1305 1303 1301 1298 1296 1294 1292 1290 1288 1286 1284 1282 1281 1279 1278 1276 1274 1273 1271 1270 1268 1267 1266 1264 1263 1262 1261 1260 1260 1259 1259 1258 1257 1257 1257 1257 1256 1256 1256 1256 1257 1257 1257 1257 1258 1258 1258 1258 1259 1259 1260 1260 1261 1261 1262 1263 1263 1264 1265 1265 1266 1266 1267 1267
1352 1350 1347 1345 1342 1339 1337 1334 1331 1328 1326 1323 1321 1319 1317 1315 1313 1311 1309 1307 1305 1303 1301 1299 1297 1295 1293 1291 1289 1287 1285 1283 1281 1280 1278 1277 1275 1274 1272 1271 1269 1268 1266 1265 1264 1263 1262 1261 1260 1259 1258 1258 1257 1257 1257 1256 1256 1256 1256 1255 1255 1256 1256 1256 1257 1257 1257 1258 1258 1258 1259 1259 1260 1260 1261 1262 1262 1263 1264 1264 1265 1266 1266 1267 1267
1349 1346 1344 1341 1339 1336 1334 1331 1328 1326 1323 1321 1318 1316 1314 1312 1310 1308 1307 1305 1303 1301 1299 1297 1296 1294 1292 1290 1288 1286 1284 1282 1280 1279 1277 1276 1274 1273 1271 1270 1268 1267 1266 1264 1263 1262 1261 1260 1259 1258 1258 1257 1257 1256 1256 1255 1255 1255 1255 1255 1255 1255 1255 1255 1256 1256 1257 1257 1257 1258 1258 1259 1259 1260 1261 1261 1262 1263 1264 1264 1265 1266 1266 1267 1267